Simultaneous Nadir Overpasses (SNOs) Predictions

Prediction of SNOs between NPP and TERRA Satellite Orbit:

Table of predicted SNOs for the next 14.0 days since TLE Epoch: 7/19/2014
Index Date (NPP) Time (NPP) Lat,Lon (NPP) SZA (NPP ) Date (TERRA) Time (TERRA) Lat,Lon (TERRA) SZA (TERRA ) Distance(km) Time Diff (sec)
1 07/21/2014 13:25:42 -69.57, 157.24 130.93 07/21/2014 13:26:52 -69.47, 158.40 131.05 46.17 70
2 07/21/2014 14:16:17 68.97, -34.60 48.46 07/21/2014 14:16:26 68.97, -34.62 48.46 0.81 9
3 07/21/2014 15:06:59 -68.88, 132.85 131.62 07/21/2014 15:05:56 -68.86, 132.88 131.64 2.21 63
4 07/24/2014 05:42:32 -69.04, -86.24 130.93 07/24/2014 05:43:24 -69.04, -86.27 130.93 1.14 52
5 07/24/2014 06:33:16 68.92, 81.24 48.96 07/24/2014 06:32:51 68.92, 81.22 48.96 0.63 25
6 07/24/2014 07:23:43 -68.03,-110.26 131.95 07/24/2014 07:22:35 -68.04,-112.22 131.90 81.26 68
7 07/26/2014 21:09:00 69.73,-138.77 50.36 07/26/2014 21:10:09 69.58,-137.28 50.18 59.79 69
8 07/26/2014 21:59:30 -68.99, 29.60 130.40 07/26/2014 21:59:48 -68.99, 29.56 130.41 1.67 18
9 07/26/2014 22:50:14 68.87,-162.93 49.49 07/26/2014 22:49:15 68.86,-162.95 49.48 1.96 59
10 07/29/2014 13:25:47 69.04, -22.02 50.27 07/29/2014 13:26:42 69.07, -22.06 50.29 3.16 55
11 07/29/2014 14:16:29 -68.95, 145.43 129.82 07/29/2014 14:16:12 -68.97, 145.45 129.80 3.07 17
12 07/29/2014 15:07:00 68.13, -46.18 49.36 07/29/2014 15:05:51 68.17, -47.89 49.43 70.77 69
13 08/01/2014 04:52:19 -70.01, -74.97
